Leesburg, FL (34748)

10:08 AM EDT on August 21, 2017 (GMT -0400)
Kings Cove on Water | | Change Station

Elev 65 ft 28.86 °N, 81.86 °W | Updated 12 minutes ago

Partly Cloudy
Partly Cloudy
86.9 °F
Feels Like 97 °F
N
4.2
Wind Variable Wind from East

Today
High -- | Low -- °F
--% Chance of Precip.
Yesterday
High -- | Low -- °F
Precip. -- in
Pressure 30.15 in
Visibility 10.0 miles
Clouds Few 1800 ft
Heat Index 97 °F
Dew Point 76 °F
Humidity 70%
Rainfall 0.00 in
Snow Depth Not available.
6:59 AM 8:00 PM
Waning Crescent, 0% visible
METAR KLEE 211353Z 11009KT 10SM FEW018 30/26 A3015 RMK AO2 SLP208 T03000256
Pressure 30.15 in
Visibility 10.0 miles
Clouds Few 1800 ft
Heat Index 97 °F
Dew Point 76 °F
Humidity 70%
Rainfall 0.00 in
Snow Depth Not available.
6:59 AM 8:00 PM
Waning Crescent, 0% visible
METAR KLEE 211353Z 11009KT 10SM FEW018 30/26 A3015 RMK AO2 SLP208 T03000256

Get Severe Weather Alerts

Thanks for signing up!

Be on the lookout for a verification email in your inbox.

You'll start receiving the daily forecast at 6 AM.

×

10-Day Weather Forecast

Almanac

Astronomy

Aug. 21, 2017 Rise Set
Actual Time
Civil Twilight
Nautical Twilight
Astronomical Twilight
Moon
Length of Visible Light
Length of Day
Tomorrow will be .
, % of the Moon is Illuminated

Today's Extremes

State Highs State Lows

Community

WunderPhotos

Category 6

Welcome to Category 6. This is the collective home for Weather Underground's featured writeups by Dr. Jeff Masters (right), Bob Henson (left), Chris Burt, and other regular contributors.

Nearby

Air Quality

  Air Quality AQ Index Pollutant
Not available.

Snow Depth

Station Depth Elevation

Earthquake Activity

City Distance Mag. Time & Date
Minimum magnitude displayed is 2.5.

Coastal Water Temperatures

Place Temperature

Stations

Nearby Weather Stations

Station Location Temp. Windchill Dew Point Humidity Wind Precip. Elev Updated Type
                   

Watches & Warnings

There are currently no watches in effect.